TimeCST,TemperatureF,Dew PointF,Humidity,Sea Level PressureIn,VisibilityMPH,Wind Direction,Wind SpeedMPH,Gust SpeedMPH,PrecipitationIn,Events,Conditions,WindDirDegrees,DateUTC
12:55 AM,54.7,53.6,96,29.97,10.0,NW,2.3,-,N/A,Fog,Patches of Fog,310,2013-02-08 06:55:00
1:25 AM,53.6,53.6,100,29.95,10.0,NW,2.3,-,N/A,Fog,Patches of Fog,310,2013-02-08 07:25:00
1:51 AM,53.2,52.2,96,29.97,1.0,North,3.5,-,N/A,,Mostly Cloudy,350,2013-02-08 07:51:00
2:20 AM,51.8,51.8,100,29.94,0.5,North,3.5,-,N/A,Fog,Fog,350,2013-02-08 08:20:00
2:42 AM,51.8,50.0,94,29.95,1.0,North,3.5,-,N/A,,Mostly Cloudy,350,2013-02-08 08:42:00
2:55 AM,52.0,51.3,97,29.97,1.5,North,3.5,-,N/A,,Scattered Clouds,350,2013-02-08 08:55:00
3:19 AM,51.8,50.0,94,29.95,0.5,NW,2.3,-,N/A,Fog,Fog,320,2013-02-08 09:19:00
3:29 AM,51.8,50.0,94,29.96,2.5,NW,2.3,-,N/A,,Clear,320,2013-02-08 09:29:00
3:30 AM,51.8,50.0,94,29.96,2.0,NW,2.3,-,N/A,,Clear,320,2013-02-08 09:30:00
3:31 AM,51.8,50.0,94,29.96,1.5,NW,2.3,-,N/A,,Clear,320,2013-02-08 09:31:00
3:42 AM,51.8,50.0,94,29.96,0.5,NNW,2.3,-,N/A,Fog,Fog,330,2013-02-08 09:42:00
3:56 AM,51.1,50.4,97,29.99,0.5,NW,2.3,-,N/A,Fog,Fog,320,2013-02-08 09:56:00
4:22 AM,50.0,50.0,100,29.97,2.0,NNW,3.5,-,N/A,,Mostly Cloudy,330,2013-02-08 10:22:00
4:32 AM,50.0,50.0,100,29.97,7.0,NW,2.3,-,N/A,Fog,Patches of Fog,320,2013-02-08 10:32:00
4:44 AM,50.0,50.0,100,29.97,0.5,NW,2.3,-,N/A,Fog,Fog,320,2013-02-08 10:44:00
4:55 AM,50.0,49.3,97,29.99,0.5,NW,3.5,-,N/A,Fog,Fog,320,2013-02-08 10:55:00
5:19 AM,50.0,48.2,94,29.98,0.8,NW,2.3,-,N/A,,Scattered Clouds,310,2013-02-08 11:19:00
5:36 AM,50.0,48.2,94,29.99,0.8,NW,2.3,-,N/A,,Mist,310,2013-02-08 11:36:00
5:56 AM,50.0,49.1,97,30.01,1.0,WNW,3.5,-,N/A,,Mist,300,2013-02-08 11:56:00
6:56 AM,49.3,48.6,97,30.04,0.5,NNW,2.3,-,N/A,Fog,Fog,330,2013-02-08 12:56:00
7:25 AM,51.8,51.8,100,30.03,0.8,North,3.5,-,N/A,,Mostly Cloudy,360,2013-02-08 13:25:00
7:34 AM,53.6,51.8,94,30.03,2.0,ESE,1.2,-,N/A,,Mostly Cloudy,110,2013-02-08 13:34:00
7:55 AM,54.7,54.1,98,30.06,2.0,North,2.3,-,N/A,,Scattered Clouds,10,2013-02-08 13:55:00
8:18 AM,57.2,55.4,94,30.04,5.0,Calm,Calm,-,N/A,,Scattered Clouds,0,2013-02-08 14:18:00
8:55 AM,60.6,56.8,87,30.06,10.0,Calm,Calm,-,N/A,,Partly Cloudy,0,2013-02-08 14:55:00
9:55 AM,63.9,56.5,77,30.07,8.0,Calm,Calm,-,N/A,,Scattered Clouds,0,2013-02-08 15:55:00
10:55 AM,64.9,56.3,74,30.07,10.0,South,6.9,-,N/A,,Scattered Clouds,190,2013-02-08 16:55:00
11:19 AM,64.4,57.2,77,30.05,10.0,South,9.2,-,N/A,,Mostly Cloudy,190,2013-02-08 17:19:00
11:55 AM,64.8,56.7,75,30.05,10.0,South,10.4,-,N/A,,Mostly Cloudy,190,2013-02-08 17:55:00
12:55 PM,64.4,57.4,78,30.04,10.0,SSW,10.4,-,N/A,,Mostly Cloudy,200,2013-02-08 18:55:00
1:55 PM,66.7,58.1,74,30.04,10.0,SSW,8.1,-,N/A,,Mostly Cloudy,210,2013-02-08 19:55:00
2:55 PM,65.5,58.6,79,30.04,10.0,SW,8.1,-,N/A,,Overcast,230,2013-02-08 20:55:00
3:31 PM,64.4,59.0,83,30.03,10.0,Variable,3.5,-,N/A,Rain,Light Rain Showers,0,2013-02-08 21:31:00
3:40 PM,64.4,59.0,83,30.04,10.0,SW,8.1,-,N/A,,Mostly Cloudy,230,2013-02-08 21:40:00
3:55 PM,65.3,58.6,79,30.04,10.0,WSW,5.8,-,0.00,,Mostly Cloudy,240,2013-02-08 21:55:00
4:55 PM,65.7,59.7,81,30.06,10.0,Variable,2.3,-,N/A,,Partly Cloudy,0,2013-02-08 22:55:00
5:55 PM,62.8,59.0,87,30.07,10.0,West,2.3,-,N/A,,Partly Cloudy,260,2013-02-08 23:55:00
6:55 PM,61.2,58.5,91,30.10,10.0,North,8.1,-,N/A,,Scattered Clouds,350,2013-02-09 00:55:00
7:55 PM,60.3,53.6,79,30.12,10.0,North,8.1,-,N/A,,Clear,360,2013-02-09 01:55:00
8:55 PM,59.2,53.8,82,30.14,10.0,North,9.2,-,N/A,,Clear,360,2013-02-09 02:55:00
9:55 PM,57.6,53.8,87,30.14,10.0,North,8.1,-,N/A,,Clear,360,2013-02-09 03:55:00
11:55 PM,54.7,50.5,86,30.15,10.0,NNE,4.6,-,N/A,,Scattered Clouds,30,2013-02-09 05:55:00